Flag for U.S.A. Weather past 2 weeks in Salinas, California, U.S.A.

Now
54 °F

Clear.


Feels Like: 54 °F
Forecast: 44 / 66 °F
Wind: No wind

Location: Salinas Municipal Airport

Current Time: Mar 3, 2015 at 11:48:04 PM

Latest Report: Mar 3, 2015 at 10:53 PM


Visibility: 10 mi

Pressure: 30.06 "Hg

Humidity: 72%

Dew point: 45 °F

Location of SalinasLocation

Historic Weather in Salinas — Graph

°F

Salinas temperature yesterday

Maximum temperature yesterday: 59 °F (at 1:53 PM)
Minimum temperature yesterday: 45 °F (at 6:00 AM)
Average temperature yesterday: 51 °F

Past Weeks' High & Low Weather Summary

 TemperatureHumidityPressure
High73 °F (Feb 20, 2:53 PM)94% (Feb 21, 8:03 AM)30.39 "Hg (Feb 21, 8:03 AM)
Low38 °F (Feb 24, 5:53 AM)17% (Feb 24, 3:53 PM)29.78 "Hg (Feb 28, 4:53 AM)
Average55 °F70%30.04 "Hg
* Reported Feb 16 10:53 PM — Mar 3 10:53 PM, Salinas, Weather by CustomWeather, © 2015

Note: Actual official high and low records may vary slightly from our data, if they occured in-between our weather recording intervals... More about our weather records

Advertising

Salinas weather history for previous 24 hours

 ConditionsComfort  
Time TempWeatherWind HumidityBarometerVisibility
10:53 PM
Tue, Mar 3
54 °FClear.No wind72%30.06 "Hg10 mi
9:53 PM55 °FClear.6 mph69%30.04 "Hg10 mi
8:53 PM55 °FClear.3 mph72%30.03 "Hg10 mi
7:53 PM56 °FPassing clouds.5 mph72%30.03 "Hg10 mi
6:53 PM57 °FClear.5 mph72%30.02 "Hg10 mi
5:53 PM58 °FPartly sunny.8 mph72%30.01 "Hg10 mi
4:53 PM61 °FSunny.12 mph62%30.00 "Hg10 mi
3:53 PM62 °FSunny.10 mph60%30.00 "Hg10 mi
2:53 PM63 °FSunny.13 mph52%30.00 "Hg10 mi
1:53 PM64 °FSunny.12 mph49%30.01 "Hg10 mi
12:53 PM65 °FSunny.8 mph44%30.03 "Hg10 mi
11:53 AM63 °FSunny.7 mph45%30.06 "Hg10 mi
10:53 AM59 °FSunny.3 mph56%30.07 "Hg10 mi
9:53 AM54 °FSunny.No wind69%30.09 "Hg10 mi
8:53 AM49 °FSunny.6 mph74%30.09 "Hg10 mi
7:53 AM44 °FSunny.7 mph82%30.07 "Hg10 mi
6:53 AM41 °FSunny.3 mph86%30.04 "Hg10 mi
5:53 AM41 °FClear.7 mph86%30.03 "Hg10 mi
4:53 AM42 °FClear.No wind85%30.03 "Hg10 mi
3:53 AM43 °FClear.No wind86%30.03 "Hg10 mi
2:53 AM43 °FClear.No wind86%30.02 "Hg10 mi
1:53 AM43 °FClear.No wind86%30.02 "Hg10 mi
12:53 AM45 °FClear.No wind86%30.02 "Hg10 mi
11:53 PM
Mon, Mar 2
46 °FClear.No wind83%30.01 "Hg10 mi
Weather by CustomWeather, © 2015

See weather overviewHow to use our weather pages